Погода в Вязьме

Поиск расширенной информации на нашем сайте:

Полезная информация:

Новости сайта



02.01.2020
Опубликован Долгосрочный прогноз погоды по городам России и ближнего зарубежья на январь 2020 года.
Карты: Прогноз на январь и февраль 2020 года, Сравнение прогнозируемой аномалии приземной температуры воздуха на январь 2020 года по разным моделям.




Погода в Вязьме - сегодня

Время (UTC), дата Ветер
(°,м/с) 
Видим.   Явления Облачность Т
(°С)
Тd
(°С)
f(%) Тe
(°С)
Pmin
(гПа)
dP
(гПа)
Po
(мм)
O2
(г/м3)
Тmin Tmax R s Состояние
почвы
12 16.04.21 050 (СВ) 10 км    10/6 600 м средняя 
[Sc|Ac und]
+14.1 +5.1 55 +14  1017.9  0.4  741  283           
15 16.04.21 050 (СВ) 10 км    6/1 1000 м верхняя 
[Cu hum|Ci fib]
+15.9 +2.9 42 +16  1016.7  -1.1  741  282      0.0     
18 16.04.21 тихо () {14}  4000 м  дымка{ливн. осадки}  10/8 600 м кучево-дожд., средняя 
[Cb cap|Ac und]
+9 +8.3 95 +9  1019.7  2.3  742  288    +16.6     
21 16.04.21 030 (СВ) 4000 м  дымка  10/10 600 м 
[Sc]
+8.8 +8.4 97 +10  1019.7  742  288           
00 17.04.21 050 (СВ) 10 км  {ливн. осадки}  3/0 средняя 
[Ac trans]
+7.9 +5.3 84 +8  1019.2  -0.6  742  290           
03 17.04.21 060 (СВ) 10 км    3/0 средняя 
[Ac trans]
+6.3 +2.7 78 +6  1019.6  0.2  742  292  +6.2       
06 17.04.21 070 (В) 10 км    3/1 1000 м средняя, верхняя 
[Cu hum|Ac trans|Cc]
+9.8 +3.9 67 +9  1020.3  743  288  +6      мокрая 
09 17.04.21 030 (СВ) 10 км    3/1 1000 м средняя, верхняя 
[Cu hum|Ac trans|Cc]
+15 +3.5 46 +16  1020  0.3  743  283           
12 17.04.21 060 (СВ) 10 км    3/1 1000 м верхняя 
[Cu hum|Ci fib]
+16.8 +3.2 40 +17  1018.7  -1.1  742  281           
15 17.04.21 050 (СВ) 5{12}  10 км    3/0 верхняя 
[Cc]
+17 +0.8 33 +17  1017.1  -1.5  741  281           
18 17.04.21 060 (СВ) 4{13}  10 км    3/0 верхняя 
[Ci fib]
+14.2 +0.4 39 +14  1018  0.6  741  284    +17.7       
21 17.04.21 050 (СВ) 10 км    ясно 
+10.8 -1.7 42 +10  1018.6  0.2  742  288           
00 18.04.21 040 (СВ) 10 км    ясно 
+8.4 -5.2 38 +8  1018.5  -0.4  741  290           
03 18.04.21 030 (СВ) 10 км    3/0 верхняя 
[Cc]
+6.7 -5.2 42 +6  1019  0.3  742  292  +6.7         
06 18.04.21 070 (В) 10 км    4/1 1500 м верхняя 
[Sc|Ci fib]
+9.6 -5.1 35 +9  1019.2  0.5  742  289  +6.7        влажная 
09 18.04.21 040 (СВ) 10 км    4/0 верхняя 
[Ci fib]
+13.1 -4.7 29 +13  1019  0.2  742  286           
12 18.04.21 170 (Ю) 10 км    6/3 1500 м верхняя 
[Cu hum|Ci fib]
+11.8 -0.9 41 +11  1019.6  0.4  742  287           
15 18.04.21 100 (В) 10 км    8/3 1000 м средняя, верхняя 
[Sc|Ac trans|Ci fib]
+9.4 +0.1 52 +9  1020.8  743  289           
18 18.04.21 080 (В) 10 км    8/6 1000 м верхняя 
[Sc|Ci fib]
+8.2 +0.8 60 +8  1022  744  291    +14.2       
21 18.04.21 030 (СВ) 10 км    9/9 1000 м 
[Sc]
+7.2 +1.5 67 +7  1021.8  -0.3  744  292           
00 19.04.21 360 (С) 10 км    9/9 1000 м 
[Sc]
+6.4 +1.3 70 +7  1021.8  0.1  744  293           
03 19.04.21 050 (СВ) 10 км    9/8 1000 м верхняя 
[Sc|Ci fib]
+7 +0 61 +6  1021.4  -0.3  743  292  +6.2         
06 19.04.21 050 (СВ) 10 км    9/0 средняя 
[Ac trans]
+8.8 -0.2 53 +8  1021.3  0.1  743  290  +6.2        влажная 
09 19.04.21 060 (СВ) 10 км    10/6 600 м средняя 
[Sc|Ac und]
+12.2 -0.4 42 +12  1020.9  743  287           
12 19.04.21 090 (В) 10 км    10/10 600 м 
[Sc]
+12.3 -0.6 41 +13  1020.8  743  287           
Время (UTC), дата Ветер
(°,м/с) 
Видим.   Явления Облачность Т
(°С)
Тd
(°С)
f(%) Тe
(°С)
Pmin
(гПа)
dP
(гПа)
Po
(мм)
O2
(г/м3)
Тmin Tmax R s Состояние
почвы

Для получения пояснительной информации подведите курсор к названию столбца.

ПОГОДА в Вязьме - архив

Всё, что Вы хотите узнать о погоде в Вязьме - удобно и подробно!

Выберите нужную дату (начиная с 1 января 2019* года) и нажмите кнопку "Найти".
Будут отображены архивные сводки погоды по пункту Вязьма, начиная с указанной даты.


Отображать данные в формате CSV (для использования в таблицах Excel)


Внимание! Наш архив погоды предназначен исключительно для личного некоммерческого использования в познавательных целях. Если Вам необходимы официальные справки о состоянии погоды (для производственных, юридических, коммерческих и т.п. целей), обращайтесь в органы Росгидромета.

*Примечание: данная дата относится к архиву по метеостанциям СССР (Россия, СНГ, Балтия).
Архив по метеостанциям Зарубежной Европы и Азии (кроме Китая) хранится 10 дней, по другим регионам земного шара (Китай, Африка, Америка, Австралия, Океания) - 1 день.

Вязьма - район местоположения метеостанции


Название, широта, долгота, высота метеостанции:
Вязьма 55.2°ш. 34.4°д. 251 м над ур. моря [Российская Федерация]

Дополнительная информация

В oтличие oт бoльшинства пoгoдных сайтoв мы публикуем пoдрoбную метеoинфoрмацию в детальнoм прoфессиoнальнoм фoрмате.

Характеристики температуры и влажнoсти вoздуха измеряются на высoте 2 м в тени вдали oт зданий и деревьев.
Скoрoсть ветра измеряется на высoте 10 м (на урoвне рoста челoвека скoрoсть ветра ниже в 1.5-2 раза). Если метеoстанция нахoдится в гoрoде или в лесу, тo скoрoсть ветра занижена на 2-4 м/с пo сравнению с oткрытым местoм. Скoрoсть ветра над акватoриями крупных рек и oзёр, а также на вершинах хoлмoв на 2-5 м/с выше, чем в oбычных услoвиях.
Атмoсфернoе давление в разных тoчках местнoсти мoжет значительнo oтличаться oт давления на метеoстанции, в зависимoсти oт услoвий рельефа (при пoдъёме на 10 м давление пoнижается примернo на 1 мм рт.ст.).